K7ZMC Weather Reports


time (UTC)temp
C
wind
direction
speed
KPH
gust
KPH
rain 1hr
cm
rain 24hr
cm
rain mn
cm
humidity
%
barometer
mb
20260505153018 18 12 6.4 14.5 0.00 0.00 0.00 51 1010.2
20260505151516 17 15 8.0 14.5 0.00 0.00 0.00 54 1010.1
20260505124608 13 340 0.0 0.0 0.00 0.00 0.00 67 1008.4
20260505123057 13 341 0.0 1.6 0.00 0.00 0.00 65 1008.2
20260505121559 13 307 1.6 4.8 0.00 0.00 0.00 66 1008.2
20260505120056 13 256 0.0 1.6 0.00 0.00 0.00 69 1007.9
20260505114559 13 322 0.0 3.2 0.00 0.00 0.00 72 1007.7
20260505113101 13 258 0.0 1.6 0.00 0.00 0.00 71 1007.6
20260505111546 14 225 1.6 4.8 0.00 0.00 0.00 67 1007.4
20260505101545 15 255 0.0 1.6 0.00 0.00 0.00 63 1006.5
20260505100037 16 196 0.0 1.6 0.00 0.00 0.00 61 1006.3
20260505094536 17 269 1.6 4.8 0.00 0.00 0.00 58 1006.2
20260505093031 17 229 3.2 3.2 0.00 0.00 0.00 56 1006.1
20260505091526 18 133 0.0 1.6 0.00 0.00 0.00 54 1006.1
20260505090024 20 65 3.2 9.7 0.00 0.00 0.00 49 1006.0
20260505084524 22 267 1.6 11.3 0.00 0.00 0.00 39 1005.7
20260505083023 21 272 9.7 19.3 0.00 0.00 0.00 41 1005.7
20260505081521 21 271 11.3 22.5 0.00 0.00 0.00 40 1005.6
20260505080020 22 248 12.9 24.1 0.00 0.00 0.00 39 1005.6
20260505074518 21 276 9.7 20.9 0.00 0.00 0.00 40 1005.6
20260505073014 19 309 1.6 9.7 0.00 0.00 0.00 46 1005.6
20260505071527 18 157 3.2 8.0 0.00 0.00 0.00 54 1005.4
20260505070009 20 276 4.8 9.7 0.00 0.00 0.00 45 1005.0
20260505064510 18 244 3.2 6.4 0.00 0.00 0.00 48 1005.0
20260505063009 20 249 1.6 4.8 0.00 0.00 0.00 42 1004.8
20260505061508 21 17 1.6 11.3 0.00 0.00 0.00 40 1004.8
20260505060032 20 239 0.0 3.2 0.00 0.00 0.00 40 1004.5
20260505054511 20 238 3.2 6.4 0.00 0.00 0.00 39 1004.5
20260505053006 21 237 0.0 3.2 0.00 0.00 0.00 44 1004.6
20260505051515 21 14 8.0 22.5 0.00 0.00 0.00 46 1004.7
20260505041507 22 191 1.6 3.2 0.00 0.00 0.00 38 1003.9
20260505040004 21 180 0.0 6.4 0.00 0.00 0.00 45 1003.8
20260505034504 22 198 0.0 1.6 0.00 0.00 0.00 40 1003.7
20260505033003 22 206 3.2 4.8 0.00 0.00 0.00 39 1003.5
20260505031503 23 200 3.2 4.8 0.00 0.00 0.00 38 1003.5
20260505030002 24 235 4.8 6.4 0.00 0.00 0.00 34 1003.3
20260505024504 26 220 3.2 3.2 0.00 0.00 0.00 31 1003.2
20260505023003 27 331 1.6 6.4 0.00 0.00 0.00 26 1003.2
20260505021559 28 132 3.2 4.8 0.00 0.00 0.00 24 1003.2
20260505020059 30 124 1.6 3.2 0.00 0.00 0.00 23 1003.3
20260505014558 30 88 3.2 8.0 0.00 0.00 0.00 24 1003.4
20260505013125 30 102 4.8 8.0 0.00 0.00 0.00 21 1003.5
20260505011607 30 121 3.2 8.0 0.00 0.00 0.00 21 1003.6
20260505010109 30 128 3.2 4.8 0.00 0.00 0.00 22 1003.7
20260505004553 30 84 4.8 11.3 0.00 0.00 0.00 25 1003.8
20260505003056 31 109 6.4 9.7 0.00 0.00 0.00 22 1003.8
20260505001553 30 52 8.0 12.9 0.00 0.00 0.00 22 1003.9
20260505000100 30 90 8.0 16.1 0.00 0.00 0.00 29 1003.8
20260504234552 31 117 8.0 19.3 0.00 0.00 0.00 23 1003.7
20260504233058 31 109 4.8 11.3 0.00 0.00 0.00 25 1003.8
20260504231550 30 62 8.0 12.9 0.00 0.00 0.00 23 1003.9
20260504230056 30 61 8.0 14.5 0.00 0.00 0.00 25 1004.0
20260504224547 31 346 8.0 19.3 0.00 0.00 0.00 20 1004.1
20260504223054 30 350 9.7 17.7 0.00 0.00 0.00 22 1004.3
20260504221542 30 103 6.4 19.3 0.00 0.00 0.00 23 1004.5
20260504220044 30 58 4.8 20.9 0.00 0.00 0.00 23 1004.7
20260504214546 30 76 9.7 12.9 0.00 0.00 0.00 27 1004.9
20260504213041 30 27 4.8 11.3 0.00 0.00 0.00 23 1005.2
20260504211537 30 59 3.2 11.3 0.00 0.00 0.00 26 1005.4
20260504210034 29 159 6.4 16.1 0.00 0.00 0.00 23 1005.6
20260504204532 29 88 4.8 16.1 0.00 0.00 0.00 25 1005.8
20260504203032 29 150 4.8 14.5 0.00 0.00 0.00 25 1006.0
20260504201528 28 80 4.8 12.9 0.00 0.00 0.00 23 1006.2
20260504200027 28 130 4.8 16.1 0.00 0.00 0.00 24 1006.3
20260504194524 28 44 1.6 11.3 0.00 0.00 0.00 23 1006.4
20260504193026 28 351 3.2 14.5 0.00 0.00 0.00 27 1006.5
20260504191523 27 53 8.0 17.7 0.00 0.00 0.00 24 1006.7
20260504190019 27 22 6.4 17.7 0.00 0.00 0.00 27 1006.8
20260504184520 27 74 6.4 11.3 0.00 0.00 0.00 30 1006.7
20260504183016 26 80 1.6 9.7 0.00 0.00 0.00 32 1006.9
20260504181523 26 57 3.2 12.9 0.00 0.00 0.00 31 1006.9
20260504180012 26 34 6.4 11.3 0.00 0.00 0.00 32 1007.1
20260504174510 25 65 3.2 12.9 0.00 0.00 0.00 33 1007.1
20260504173009 25 343 3.2 8.0 0.00 0.00 0.00 37 1007.2
20260504171508 24 90 3.2 8.0 0.00 0.00 0.00 36 1007.3
20260504160104 22 248 6.4 16.1 0.00 0.00 0.00 38 1007.3